Weather History for Richmond, VA

Change the Weather History Date:

Saturday, November 9, 2013

  Actual Average Record
Temperature  
Mean Temperature 46 °F 53 °F  
Max Temperature 60 °F 64 °F 81 °F (1986)
Min Temperature 32 °F 41 °F 17 °F (1976)
Degree Days  
Heating Degree Days 19 13  
Month to date heating degree days 94 104  
Since 1 July heating degree days 244 337  
Cooling Degree Days 0 0  
Month to date cooling degree days 8 0  
Year to date cooling degree days 1678 1543  
Moisture  
Dew Point 28 °F    
Average Humidity 52    
Maximum Humidity 78    
Minimum Humidity 25    
Precipitation  
Precipitation 0.00 in 0.11 in 2.22 in (1962)
Month to date precipitation 0.07 0.98  
Year to date precipitation 44.58 38.08  
Snow  
Snow 0.00 in 0.00 in T in (1900)
Month to date snowfall 0.0 0.0  
Since 1 July snowfall 0.0 0.0  
Snow Depth 0.00 in    
Sea Level Pressure  
Sea Level Pressure 30.29 in    
Wind  
Wind Speed 6 mph (SSW)    
Max Wind Speed 18 mph    
Max Gust Speed 22 mph    
Visibility 10 miles    
Events      
T = Trace of Precipitation, MM = Missing Value Source: NWS Daily Summary

Daily Weather History Graph

Daily Weather History Graph

Search for Another Location

Airport:

Trip Planner

Search our weather history database for the weather conditions in past years. The results will help you decide how hot, cold, wet, or windy it might be!

Date:

Astronomy

Nov. 09, 2013 Rise Set
Actual Time 6:42 AM EST 5:03 PM EST
Civil Twilight 6:15 AM EST 5:30 PM EST
Nautical Twilight 5:43 AM EST 6:01 PM EST
Astronomical Twilight 5:13 AM EST 6:32 PM EST
Moon 12:19 PM EST (11/9) 11:29 PM EST (11/9)
Length of Visible Light 11h 15m
Length of Day
10h 20m
Waxing Crescent, 44% of the Moon is Illuminated
Nov 9
Waxing Crescent
Nov 10
First Quarter
Nov 17
Full
Nov 25
Last Quarter
Dec 2
New

Hourly Weather History & Observations

Time (EST) Temp. Windchill Dew Point Humidity Pressure Visibility Wind Dir Wind Speed Gust Speed Precip Events Conditions
12:54 AM 35.1 °F - 26.1 °F 70% 30.37 in 10.0 mi Calm Calm - N/A   Clear
1:54 AM 34.0 °F - 26.1 °F 73% 30.36 in 10.0 mi Calm Calm - N/A   Clear
2:54 AM 34.0 °F - 26.1 °F 73% 30.37 in 10.0 mi Calm Calm - N/A   Clear
3:54 AM 33.1 °F - 26.1 °F 75% 30.37 in 10.0 mi Calm Calm - N/A   Clear
4:54 AM 32.0 °F - 27.0 °F 82% 30.36 in 10.0 mi Calm Calm - N/A   Clear
5:54 AM 32.0 °F - 26.1 °F 79% 30.37 in 10.0 mi Calm Calm - N/A   Clear
6:54 AM 32.0 °F - 26.1 °F 79% 30.38 in 5.0 mi Calm Calm - N/A   Haze
7:54 AM 37.0 °F - 30.0 °F 76% 30.40 in 6.0 mi Calm Calm - N/A   Haze
8:54 AM 45.0 °F - 33.1 °F 63% 30.40 in 10.0 mi Calm Calm - N/A   Partly Cloudy
9:54 AM 51.1 °F - 27.0 °F 39% 30.38 in 10.0 mi South 5.8 mph - N/A   Partly Cloudy
10:54 AM 53.1 °F - 27.0 °F 37% 30.35 in 10.0 mi South 8.1 mph - N/A   Partly Cloudy
11:54 AM 55.9 °F - 25.0 °F 30% 30.32 in 10.0 mi SSW 11.5 mph - N/A   Partly Cloudy
12:54 PM 59.0 °F - 25.0 °F 27% 30.27 in 10.0 mi SW 13.8 mph 17.3 mph N/A   Partly Cloudy
1:54 PM 60.1 °F - 25.0 °F 26% 30.24 in 10.0 mi SW 15.0 mph - N/A   Partly Cloudy
2:54 PM 60.1 °F - 27.0 °F 28% 30.22 in 10.0 mi SW 12.7 mph - N/A   Partly Cloudy
3:54 PM 57.9 °F - 28.0 °F 32% 30.21 in 10.0 mi SSW 12.7 mph - N/A   Partly Cloudy
4:54 PM 54.0 °F - 28.0 °F 37% 30.22 in 10.0 mi SSW 10.4 mph - N/A   Scattered Clouds
5:54 PM 51.1 °F - 28.0 °F 41% 30.22 in 10.0 mi SSW 9.2 mph - N/A   Mostly Cloudy
6:54 PM 46.9 °F - 28.9 °F 50% 30.21 in 10.0 mi South 6.9 mph - N/A   Mostly Cloudy
7:54 PM 46.9 °F - 30.0 °F 52% 30.20 in 10.0 mi SSW 6.9 mph - N/A   Scattered Clouds
8:54 PM 45.0 °F 40.1 °F 30.9 °F 58% 30.17 in 10.0 mi SSW 9.2 mph - N/A   Scattered Clouds
9:54 PM 48.0 °F - 30.9 °F 52% 30.14 in 10.0 mi SSW 10.4 mph - N/A   Partly Cloudy
10:54 PM 48.9 °F - 30.0 °F 48% 30.12 in 10.0 mi SSW 13.8 mph - N/A   Clear
11:54 PM 45.0 °F 40.6 °F 30.0 °F 56% 30.12 in 10.0 mi SSW 8.1 mph - N/A   Clear